Weather History for Washington, MO

Change the Weather History Date:

Tuesday, November 6, 2012

  Actual Average (KSTL) Record (KSTL)
Temperature  
Mean Temperature 44 °F 51 °F  
Max Temperature 46 °F 61 °F 81 °F (1915)
Min Temperature 41 °F 42 °F 22 °F (1959)
Degree Days  
Heating Degree Days 22 14  
Month to date heating degree days 78  
Since 1 July heating degree days 354  
Cooling Degree Days 0 0  
Month to date cooling degree days 0  
Year to date cooling degree days 1642  
Moisture  
Dew Point 41 °F    
Average Humidity 90    
Maximum Humidity 100    
Minimum Humidity 81    
Precipitation  
Precipitation 0.00 in 0.12 in 2.25 in (1996)
Month to date precipitation 0.72  
Year to date precipitation 34.93  
Snow  
Snow - 0.10 in 6.90 in (1951)
Month to date snowfall 0.1  
Since 1 July snowfall 0.1  
Since 1 September snowfall 0.1  
Snow Depth -    
Sea Level Pressure  
Sea Level Pressure 30.00 in    
Wind  
Wind Speed 1 mph ()    
Max Wind Speed 9 mph    
Max Gust Speed -    
Visibility 7.1 miles    
Events Rain    
T = Trace of Precipitation, MM = Missing Value Source: Averaged Metar Reports

Daily Weather History Graph

Daily Weather History Graph

Search for Another Location

Airport:

Trip Planner

Search our weather history database for the weather conditions in past years. The results will help you decide how hot, cold, wet, or windy it might be!

Date:

Astronomy

Nov. 06, 2012 Rise Set
Actual Time 6:36 AM CST 4:58 PM CST
Civil Twilight 6:08 AM CST 5:25 PM CST
Nautical Twilight 5:37 AM CST 5:57 PM CST
Astronomical Twilight 5:06 AM CST 6:28 PM CST
Moon 11:36 PM CST (11/6) 12:29 PM CST (11/6)
Length of Visible Light 11h 17m
Length of Day
10h 21m
Waning Gibbous, 53% of the Moon is Illuminated
Nov 6
Waning Gibbous
Nov 6
Last Quarter
Nov 13
New
Nov 20
First Quarter
Nov 28
Full

Hourly Weather History & Observations

Time (CST) Temp. Windchill Dew Point Humidity Pressure Visibility Wind Dir Wind Speed Gust Speed Precip Events Conditions
12:15 AM 41.0 °F - 39.2 °F 93% 30.08 in 5.0 mi Calm Calm - N/A   Overcast
12:35 AM 41.0 °F - 39.2 °F 93% 30.08 in 5.0 mi Calm Calm - N/A   Overcast
12:55 AM 41.0 °F - 39.2 °F 93% 30.08 in 5.0 mi Calm Calm - N/A   Overcast
1:15 AM 41.0 °F - 39.2 °F 93% 30.08 in 5.0 mi Calm Calm - N/A   Overcast
1:35 AM 41.0 °F - 41.0 °F 100% 30.08 in 4.0 mi Calm Calm - N/A   Overcast
1:55 AM 41.0 °F - 39.2 °F 93% 30.07 in 5.0 mi Calm Calm - N/A   Overcast
2:15 AM 41.0 °F - 39.2 °F 93% 30.06 in 6.0 mi Calm Calm - N/A   Overcast
2:35 AM 41.0 °F - 39.2 °F 93% 30.06 in 5.0 mi Calm Calm - N/A   Overcast
2:55 AM 41.0 °F - 39.2 °F 93% 30.06 in 5.0 mi Calm Calm - N/A   Overcast
3:15 AM 41.0 °F - 39.2 °F 93% 30.06 in 5.0 mi Calm Calm - N/A   Overcast
3:35 AM 41.0 °F - 41.0 °F 100% 30.07 in 4.0 mi Calm Calm - N/A   Overcast
3:55 AM 41.0 °F - 39.2 °F 93% 30.07 in 5.0 mi Calm Calm - N/A   Overcast
4:15 AM 41.0 °F - 39.2 °F 93% 30.07 in 4.0 mi Calm Calm - N/A   Overcast
4:35 AM 41.0 °F - 41.0 °F 100% 30.07 in 3.0 mi Calm Calm - N/A   Overcast
4:55 AM 41.0 °F - 41.0 °F 100% 30.07 in 3.0 mi Calm Calm - N/A   Overcast
5:35 AM 41.0 °F - 39.2 °F 93% 30.04 in 4.0 mi Calm Calm - N/A   Overcast
5:55 AM 41.0 °F - 41.0 °F 100% 30.02 in 3.0 mi Calm Calm - N/A   Overcast
6:15 AM 41.0 °F - 39.2 °F 93% 30.02 in 3.0 mi Calm Calm - N/A   Overcast
6:35 AM 41.0 °F - 39.2 °F 93% 30.04 in 4.0 mi Calm Calm - N/A   Overcast
6:55 AM 41.0 °F - 41.0 °F 100% 30.05 in 3.0 mi Calm Calm - N/A   Overcast
7:15 AM 41.0 °F - 41.0 °F 100% 30.04 in 3.0 mi Calm Calm - N/A   Overcast
7:35 AM 41.0 °F - 41.0 °F 100% 30.06 in 2.0 mi Calm Calm - N/A   Overcast
7:55 AM 41.0 °F - 39.2 °F 93% 30.05 in 3.0 mi Calm Calm - N/A   Overcast
8:15 AM 41.0 °F - 39.2 °F 93% 30.03 in 3.0 mi Calm Calm - N/A   Mostly Cloudy
8:35 AM 41.0 °F - 41.0 °F 100% 30.03 in 4.0 mi Calm Calm - N/A   Scattered Clouds
8:55 AM 42.8 °F 38.0 °F 41.0 °F 93% 30.03 in 5.0 mi WSW 8.1 mph - N/A   Mostly Cloudy
9:15 AM 42.8 °F 41.1 °F 41.0 °F 93% 30.04 in 5.0 mi WSW 3.5 mph - N/A   Mostly Cloudy
9:35 AM 44.6 °F 42.2 °F 41.0 °F 87% 30.04 in 7.0 mi WSW 4.6 mph - N/A   Overcast
9:55 AM 44.6 °F 43.1 °F 41.0 °F 87% 30.04 in 7.0 mi WSW 3.5 mph - N/A   Overcast
10:15 AM 44.6 °F 43.1 °F 41.0 °F 87% 30.04 in 8.0 mi SW 3.5 mph - N/A   Overcast
10:35 AM 44.6 °F 42.2 °F 41.0 °F 87% 30.04 in 5.0 mi SSW 4.6 mph - N/A Rain Light Rain
10:55 AM 44.6 °F - 41.0 °F 87% 30.03 in 5.0 mi Calm Calm - N/A   Overcast
11:15 AM 44.6 °F - 41.0 °F 87% 30.01 in 7.0 mi Calm Calm - N/A   Overcast
11:35 AM 44.6 °F 41.4 °F 41.0 °F 87% 30.00 in 8.0 mi South 5.8 mph - N/A   Overcast
11:55 AM 44.6 °F 42.2 °F 42.8 °F 93% 29.99 in 8.0 mi SSW 4.6 mph - N/A   Overcast
12:15 PM 44.6 °F 43.1 °F 42.8 °F 93% 29.97 in 4.0 mi SSW 3.5 mph - N/A Rain Light Rain
12:35 PM 44.6 °F 40.2 °F 42.8 °F 93% 29.96 in 7.0 mi SW 8.1 mph - N/A   Mostly Cloudy
12:55 PM 46.4 °F 44.3 °F 42.8 °F 87% 29.95 in 10.0 mi WSW 4.6 mph - N/A   Overcast
1:15 PM 46.4 °F 45.2 °F 42.8 °F 87% 29.95 in 10.0 mi West 3.5 mph - N/A   Overcast
1:35 PM 46.4 °F 42.9 °F 42.8 °F 87% 29.94 in 10.0 mi West 6.9 mph - N/A   Overcast
1:55 PM 46.4 °F 44.3 °F 42.8 °F 87% 29.93 in 10.0 mi West 4.6 mph - N/A   Overcast
2:15 PM 46.4 °F 43.5 °F 41.0 °F 81% 29.94 in 10.0 mi West 5.8 mph - N/A   Overcast
2:35 PM 46.4 °F 43.5 °F 41.0 °F 81% 29.94 in 10.0 mi West 5.8 mph - N/A   Mostly Cloudy
2:55 PM 46.4 °F 44.3 °F 42.8 °F 87% 29.94 in 4.0 mi West 4.6 mph - N/A Rain Light Rain
3:15 PM 46.4 °F 42.9 °F 41.0 °F 81% 29.93 in 10.0 mi WNW 6.9 mph - N/A   Mostly Cloudy
3:35 PM 46.4 °F 42.9 °F 41.0 °F 81% 29.93 in 10.0 mi WNW 6.9 mph - N/A   Overcast
3:55 PM 46.4 °F 43.5 °F 41.0 °F 81% 29.94 in 10.0 mi WNW 5.8 mph - N/A   Overcast
4:15 PM 46.4 °F 41.9 °F 41.0 °F 81% 29.94 in 10.0 mi WNW 9.2 mph - N/A   Overcast
4:35 PM 46.4 °F 41.9 °F 41.0 °F 81% 29.95 in 10.0 mi WNW 9.2 mph - N/A   Overcast
4:55 PM 46.4 °F 43.5 °F 41.0 °F 81% 29.95 in 10.0 mi WNW 5.8 mph - N/A   Overcast
5:15 PM 46.4 °F 45.2 °F 41.0 °F 81% 29.95 in 10.0 mi WNW 3.5 mph - N/A   Overcast
5:35 PM 46.4 °F - 41.0 °F 81% 29.96 in 10.0 mi Calm Calm - N/A   Mostly Cloudy
5:55 PM 46.4 °F - 41.0 °F 81% 29.96 in 10.0 mi Calm Calm - N/A   Overcast
6:15 PM 44.6 °F - 41.0 °F 87% 29.96 in 10.0 mi Calm Calm - N/A   Overcast
6:35 PM 44.6 °F - 41.0 °F 87% 29.96 in 10.0 mi Calm Calm - N/A   Overcast
6:55 PM 44.6 °F - 41.0 °F 87% 29.96 in 9.0 mi Calm Calm - N/A   Overcast
7:15 PM 44.6 °F - 41.0 °F 87% 29.97 in 10.0 mi Calm Calm - N/A   Overcast
7:35 PM 44.6 °F - 41.0 °F 87% 29.96 in 10.0 mi Calm Calm - N/A   Overcast
7:55 PM 44.6 °F - 41.0 °F 87% 29.96 in 10.0 mi Calm Calm - N/A   Overcast
8:15 PM 44.6 °F - 41.0 °F 87% 29.96 in 10.0 mi Calm Calm - N/A   Overcast
8:35 PM 44.6 °F - 41.0 °F 87% 29.96 in 10.0 mi Calm Calm - N/A   Overcast
8:55 PM 42.8 °F - 41.0 °F 93% 29.96 in 9.0 mi Calm Calm - N/A   Overcast
9:15 PM 44.6 °F - 41.0 °F 87% 29.96 in 10.0 mi Calm Calm - N/A   Overcast
9:35 PM 44.6 °F - 41.0 °F 87% 29.96 in 10.0 mi Calm Calm - N/A   Overcast
9:55 PM 44.6 °F - 41.0 °F 87% 29.95 in 10.0 mi Calm Calm - N/A   Overcast
10:15 PM 44.6 °F - 41.0 °F 87% 29.95 in 9.0 mi Calm Calm - N/A   Overcast
10:35 PM 44.6 °F - 41.0 °F 87% 29.95 in 10.0 mi Calm Calm - N/A   Overcast
10:55 PM 44.6 °F - 41.0 °F 87% 29.95 in 8.0 mi Calm Calm - N/A   Overcast
11:15 PM 44.6 °F - 41.0 °F 87% 29.95 in 10.0 mi Calm Calm - N/A   Overcast
11:35 PM 44.6 °F - 41.0 °F 87% 29.95 in 10.0 mi Calm Calm - N/A   Overcast
11:55 PM 44.6 °F - 41.0 °F 87% 29.95 in 10.0 mi Calm Calm - N/A   Overcast